Weather History for LTFE - October, 2013

Change the Weather History Date:

Tuesday, October 15, 2013

  Actual Average Record
Temperature  
Mean Temperature 65 °F -  
Max Temperature 80 °F - - ()
Min Temperature 50 °F - - ()
Growing Degree Days 15 (Base 50)    
Moisture  
Dew Point 48 °F    
Average Humidity 60    
Maximum Humidity 87    
Minimum Humidity 26    
Precipitation  
Precipitation 0.00 in - - ()
Sea Level Pressure  
Sea Level Pressure 30.04 in    
Wind  
Wind Speed 4 mph ()    
Max Wind Speed 16 mph    
Max Gust Speed -    
T = Trace of Precipitation, MM = Missing Value Source: Averaged Metar Reports

Daily Weather History Graph

Daily Weather History Graph

Search for Another Location

Airport or City:

Trip Planner

Search our weather history database for the weather conditions in past years. The results will help you decide how hot, cold, wet, or windy it might be!

Date:

Astronomy

Oct. 15, 2013 Rise Set
Actual Time 7:17 AM EEST 6:32 PM EEST
Civil Twilight 6:50 AM EEST 6:58 PM EEST
Nautical Twilight 6:20 AM EEST 7:28 PM EEST
Astronomical Twilight 5:50 AM EEST 7:58 PM EEST
Moon 4:22 PM EEST (10/15) 3:23 AM EEST (10/15)
Length of Visible Light 12h 07m
Length of Day
11h 15m
Waxing Gibbous, 85% of the Moon is Illuminated
Oct 15
Waxing Gibbous
Oct 19
Full
Oct 27
Last Quarter
Nov 3
New
Nov 10
First Quarter

Hourly Weather History & Observations

Time (EEST) Temp. Dew Point Humidity Pressure Visibility Wind Dir Wind Speed Gust Speed Precip Events Conditions
12:20 AM 59.0 °F 48.2 °F 67% 30.06 in - Variable 3.5 mph - N/A   Clear
12:50 AM 57.2 °F 48.2 °F 72% 30.06 in - Variable 1.2 mph - N/A   Clear
1:20 AM 57.2 °F 48.2 °F 72% 30.06 in - Variable 2.3 mph - N/A   Clear
1:50 AM 55.4 °F 48.2 °F 77% 30.06 in - Variable 1.2 mph - N/A   Clear
2:20 AM 55.4 °F 48.2 °F 77% 30.06 in - Variable 1.2 mph - N/A   Clear
2:50 AM 53.6 °F 48.2 °F 82% 30.06 in - SSE 4.6 mph - N/A   Clear
3:20 AM 53.6 °F 48.2 °F 82% 30.06 in - SSE 2.3 mph - N/A   Clear
3:50 AM 53.6 °F 46.4 °F 77% 30.06 in - SE 4.6 mph - N/A   Clear
4:20 AM 53.6 °F 48.2 °F 82% 30.06 in - South 3.5 mph - N/A   Clear
4:50 AM 51.8 °F 46.4 °F 82% 30.06 in - East 3.5 mph - N/A   Clear
5:20 AM 50.0 °F 46.4 °F 87% 30.06 in - Calm Calm - N/A   Clear
5:50 AM 50.0 °F 46.4 °F 87% 30.06 in - Variable 1.2 mph - N/A   Clear
6:20 AM 50.0 °F 46.4 °F 87% 30.06 in - Variable 1.2 mph - N/A   Clear
6:50 AM 50.0 °F 46.4 °F 87% 30.06 in - Variable 2.3 mph - N/A   Clear
7:20 AM 50.0 °F 44.6 °F 82% 30.06 in - Variable 2.3 mph - N/A   Clear
7:50 AM 50.0 °F 46.4 °F 87% 30.06 in - SE 4.6 mph - N/A   Clear
8:20 AM 53.6 °F 48.2 °F 82% 30.06 in - Variable 2.3 mph - N/A   Clear
8:50 AM 59.0 °F 48.2 °F 67% 30.06 in - ESE 3.5 mph - N/A   Clear
9:20 AM 60.8 °F 48.2 °F 63% 30.06 in - NE 3.5 mph - N/A   Clear
9:50 AM 64.4 °F 48.2 °F 56% 30.06 in - Variable 2.3 mph - N/A   Clear
10:20 AM 68.0 °F 46.4 °F 46% 30.06 in - Variable 2.3 mph - N/A   Clear
10:50 AM 73.4 °F 42.8 °F 33% 30.06 in - SE 3.5 mph - N/A   Clear
11:20 AM 75.2 °F 42.8 °F 31% 30.06 in - Variable 2.3 mph - N/A   Clear
11:50 AM 77.0 °F 41.0 °F 28% 30.06 in - West 4.6 mph - N/A   Clear
12:20 PM 78.8 °F 42.8 °F 28% 30.04 in - WNW 6.9 mph - N/A   Clear
12:50 PM 80.6 °F 42.8 °F 26% 30.04 in - WNW 8.1 mph - N/A   Clear
1:20 PM 80.6 °F 42.8 °F 26% 30.04 in - West 16.1 mph - N/A   Clear
1:50 PM 78.8 °F 44.6 °F 30% 30.04 in - West 16.1 mph - N/A   Clear
2:20 PM 78.8 °F 44.6 °F 30% 30.01 in - West 16.1 mph - N/A   Clear
2:50 PM 78.8 °F 50.0 °F 36% 30.01 in - West 13.8 mph - N/A   Clear
3:20 PM 78.8 °F 48.2 °F 34% 30.01 in - West 10.4 mph - N/A   Clear
3:50 PM 78.8 °F 51.8 °F 39% 30.01 in - West 10.4 mph - N/A   Clear
4:20 PM 78.8 °F 48.2 °F 34% 30.01 in - WSW 10.4 mph - N/A   Clear
4:50 PM 77.0 °F 51.8 °F 41% 30.01 in - WSW 10.4 mph - N/A   Clear
5:20 PM 75.2 °F 50.0 °F 41% 30.01 in - WSW 9.2 mph - N/A   Clear
5:50 PM 75.2 °F 46.4 °F 36% 30.01 in - WSW 8.1 mph - N/A   Clear
6:20 PM 71.6 °F 51.8 °F 50% 30.01 in - South 3.5 mph - N/A   Clear
6:50 PM 69.8 °F 51.8 °F 53% 30.01 in - Variable 3.5 mph - N/A   Clear
7:20 PM 68.0 °F 51.8 °F 56% 30.01 in - Variable 2.3 mph - N/A   Clear
7:50 PM 68.0 °F 51.8 °F 56% 30.01 in - Variable 2.3 mph - N/A   Clear
8:20 PM 64.4 °F 55.4 °F 73% 30.04 in - Calm Calm - N/A   Clear
8:50 PM 62.6 °F 53.6 °F 72% 30.04 in - East 4.6 mph - N/A   Clear
9:20 PM 62.6 °F 53.6 °F 72% 30.04 in - ESE 3.5 mph - N/A   Clear
9:50 PM 60.8 °F 51.8 °F 72% 30.04 in - ENE 5.8 mph - N/A   Clear
10:20 PM 59.0 °F 50.0 °F 72% 30.04 in - Variable 4.6 mph - N/A   Clear
10:50 PM 59.0 °F 48.2 °F 67% 30.01 in - East 5.8 mph - N/A   Clear
11:20 PM 57.2 °F 50.0 °F 77% 30.01 in - East 6.9 mph - N/A   Clear
11:50 PM 57.2 °F 50.0 °F 77% 30.01 in - ESE 8.1 mph - N/A   Clear